N2LQH Weather Reports


time (UTC)temp
C
wind
direction
speed
KPH
gust
KPH
rain 1hr
cm
rain 24hr
cm
rain mn
cm
humidity
%
barometer
mb
20260505040553 13 173 3.2 8.0 0.00 0.00 0.00 75 1012.3
20260505040056 13 172 3.2 9.7 0.00 0.00 0.00 75 1012.3
20260505035554 13 140 3.2 9.7 0.00 0.00 0.00 74 1012.3
20260505035054 14 155 4.8 11.3 0.00 0.00 0.00 74 1012.2
20260505034552 14 175 4.8 14.5 0.00 0.00 0.00 74 1012.1
20260505034052 14 183 4.8 14.5 0.00 0.00 0.00 74 1012.0
20260505033552 14 165 8.0 12.9 0.00 0.00 0.00 73 1012.0
20260505033055 14 174 4.8 14.5 0.00 0.00 0.00 73 1012.1
20260505032555 14 182 4.8 14.5 0.00 0.00 0.00 73 1012.1
20260505032051 14 191 4.8 14.5 0.00 0.00 0.00 72 1012.2
20260505031602 14 175 4.8 16.1 0.00 0.00 0.00 72 1012.3
20260505031057 14 199 6.4 16.1 0.00 0.00 0.00 72 1012.2
20260505030551 14 180 4.8 12.9 0.00 0.00 0.00 72 1012.4
20260505030052 14 194 6.4 12.9 0.00 0.00 0.00 71 1012.3
20260505025551 14 167 8.0 14.5 0.00 0.00 0.00 71 1012.3
20260505025054 15 188 4.8 16.1 0.00 0.00 0.00 71 1012.4
20260505024551 15 162 8.0 16.1 0.00 0.00 0.00 71 1012.4
20260505024053 15 175 4.8 11.3 0.00 0.00 0.00 71 1012.5
20260505023552 15 173 6.4 11.3 0.00 0.00 0.00 70 1012.4
20260505023100 15 155 4.8 11.3 0.00 0.00 0.00 70 1012.5
20260505022552 15 198 6.4 9.7 0.00 0.00 0.00 70 1012.7
20260505022052 15 151 4.8 12.9 0.00 0.00 0.00 70 1012.5
20260505021552 15 185 6.4 12.9 0.00 0.00 0.00 70 1012.5
20260505021052 15 160 4.8 12.9 0.00 0.00 0.00 70 1012.6
20260505020552 15 181 4.8 12.9 0.00 0.00 0.00 69 1012.5
20260505020054 15 0 6.4 14.5 0.00 0.00 0.00 69 1012.5
20260505015555 15 173 4.8 14.5 0.00 0.00 0.00 69 1012.4
20260505015051 15 171 4.8 11.3 0.00 0.00 0.00 69 1012.4
20260505014554 15 180 4.8 14.5 0.00 0.00 0.00 69 1012.5
20260505014054 15 191 4.8 16.1 0.00 0.00 0.00 69 1012.5
20260505013552 15 187 4.8 16.1 0.00 0.00 0.00 68 1012.5
20260505013059 15 196 6.4 12.9 0.00 0.00 0.00 68 1012.5
20260505012552 16 173 6.4 14.5 0.00 0.00 0.00 68 1012.5
20260505012051 16 190 4.8 14.5 0.00 0.00 0.00 67 1012.5
20260505011552 16 179 6.4 20.9 0.00 0.00 0.00 67 1012.4
20260505011053 16 207 6.4 20.9 0.00 0.00 0.00 67 1012.4
20260505010550 16 204 6.4 17.7 0.00 0.00 0.00 66 1012.3
20260505010053 16 200 8.0 17.7 0.00 0.00 0.00 66 1012.0
20260505005553 16 180 6.4 16.1 0.00 0.00 0.00 65 1012.0
20260505005053 16 164 6.4 14.5 0.00 0.00 0.00 64 1012.0
20260505004555 16 183 6.4 14.5 0.00 0.00 0.00 62 1011.9
20260505004053 16 196 6.4 11.3 0.00 0.00 0.00 61 1012.0
20260505003552 17 181 6.4 14.5 0.00 0.00 0.00 60 1012.0
20260505003058 17 186 6.4 14.5 0.00 0.00 0.00 59 1012.0
20260505002555 17 169 4.8 11.3 0.00 0.00 0.00 57 1011.9
20260505002056 17 162 4.8 11.3 0.00 0.00 0.00 56 1011.9
20260505001556 17 171 6.4 12.9 0.00 0.00 0.00 55 1011.9
20260505001051 18 169 4.8 12.9 0.00 0.00 0.00 54 1011.7
20260505000551 18 184 3.2 12.9 0.00 0.00 0.00 53 1011.8
20260505000106 18 155 6.4 12.9 0.00 0.00 0.00 52 1011.6
20260504235551 19 140 3.2 11.3 0.00 0.00 0.00 50 1011.6
20260504235052 19 173 3.2 11.3 0.00 0.00 0.00 49 1011.6
20260504234610 20 181 4.8 14.5 0.00 0.00 0.00 47 1011.5
20260504234050 20 185 6.4 14.5 0.00 0.00 0.00 46 1011.5
20260504233551 20 173 6.4 12.9 0.00 0.00 0.00 42 1011.4
20260504233051 20 177 6.4 14.5 0.00 0.00 0.00 41 1011.4
20260504232552 20 216 4.8 14.5 0.00 0.00 0.00 40 1011.4
20260504232050 21 212 6.4 17.7 0.00 0.00 0.00 40 1011.5
20260504231603 21 206 8.0 17.7 0.00 0.00 0.00 39 1011.5
20260504231053 21 193 9.7 16.1 0.00 0.00 0.00 39 1011.5
20260504230555 21 224 3.2 14.5 0.00 0.00 0.00 39 1011.5
20260504230052 21 207 6.4 14.5 0.00 0.00 0.00 38 1011.4
20260504225550 21 213 4.8 25.7 0.00 0.00 0.00 37 1011.4
20260504225052 21 220 6.4 25.7 0.00 0.00 0.00 37 1011.2
20260504224555 22 229 11.3 24.1 0.00 0.00 0.00 36 1011.2
20260504224053 22 215 4.8 19.3 0.00 0.00 0.00 36 1011.1
20260504223554 22 242 9.7 22.5 0.00 0.00 0.00 35 1011.2
20260504223051 22 267 9.7 24.1 0.00 0.00 0.00 36 1011.2
20260504222551 22 232 12.9 27.4 0.00 0.00 0.00 36 1011.1
20260504222051 22 224 11.3 27.4 0.00 0.00 0.00 35 1011.1
20260504221559 22 246 14.5 27.4 0.00 0.00 0.00 35 1011.2
20260504221053 22 243 8.0 19.3 0.00 0.00 0.00 35 1011.2
20260504220554 22 276 9.7 20.9 0.00 0.00 0.00 35 1011.2
20260504220052 22 232 6.4 20.9 0.00 0.00 0.00 35 1011.1
20260504215552 22 233 14.5 25.7 0.00 0.00 0.00 34 1011.3
20260504215052 22 223 12.9 25.7 0.00 0.00 0.00 33 1011.3
20260504214554 23 215 9.7 22.5 0.00 0.00 0.00 33 1011.2
20260504214053 23 222 6.4 25.7 0.00 0.00 0.00 34 1011.1
20260504213552 23 250 6.4 25.7 0.00 0.00 0.00 34 1011.2
20260504213055 23 286 8.0 27.4 0.00 0.00 0.00 35 1011.2
20260504212552 23 325 12.9 27.4 0.00 0.00 0.00 33 1011.2
20260504212051 23 252 11.3 17.7 0.00 0.00 0.00 34 1011.1
20260504211558 23 277 8.0 22.5 0.00 0.00 0.00 34 1011.2
20260504211054 23 197 12.9 30.6 0.00 0.00 0.00 35 1011.1
20260504210551 23 240 14.5 30.6 0.00 0.00 0.00 36 1011.2
20260504210110 23 246 8.0 22.5 0.00 0.00 0.00 34 1011.2
20260504205552 23 219 11.3 30.6 0.00 0.00 0.00 35 1011.2
20260504205052 23 250 12.9 30.6 0.00 0.00 0.00 34 1011.3
20260504204602 23 200 17.7 29.0 0.00 0.00 0.00 34 1011.1
20260504204053 23 209 16.1 27.4 0.00 0.00 0.00 34 1011.1
20260504203553 23 208 11.3 27.4 0.00 0.00 0.00 33 1011.1
20260504203054 23 180 11.3 27.4 0.00 0.00 0.00 34 1011.0
20260504202553 23 211 11.3 22.5 0.00 0.00 0.00 33 1011.1
20260504202057 23 206 6.4 24.1 0.00 0.00 0.00 33 1011.1
20260504201556 23 239 11.3 24.1 0.00 0.00 0.00 31 1011.3
20260504201053 23 247 11.3 20.9 0.00 0.00 0.00 33 1011.3
20260504200552 23 244 8.0 19.3 0.00 0.00 0.00 33 1011.3
20260504200100 23 242 6.4 29.0 0.00 0.00 0.00 34 1011.3
20260504195550 23 0 9.7 29.0 0.00 0.00 0.00 36 1011.4
20260504195051 23 216 12.9 29.0 0.00 0.00 0.00 34 1011.5
20260504194608 23 183 12.9 24.1 0.00 0.00 0.00 33 1011.4
20260504194051 23 205 4.8 24.1 0.00 0.00 0.00 36 1011.4
20260504193551 23 233 12.9 24.1 0.00 0.00 0.00 35 1011.5
20260504193056 22 321 11.3 24.1 0.00 0.00 0.00 34 1011.6
20260504192550 22 222 14.5 24.1 0.00 0.00 0.00 35 1011.8
20260504192052 22 226 9.7 27.4 0.00 0.00 0.00 35 1011.9
20260504191558 22 297 11.3 27.4 0.00 0.00 0.00 35 1012.0
20260504191052 22 236 9.7 22.5 0.00 0.00 0.00 35 1012.0
20260504190552 22 317 11.3 24.1 0.00 0.00 0.00 35 1012.1
20260504190125 22 257 12.9 24.1 0.00 0.00 0.00 34 1012.3
20260504185552 22 258 11.3 24.1 0.00 0.00 0.00 35 1012.3
20260504185052 22 225 12.9 24.1 0.00 0.00 0.00 35 1012.4
20260504184557 22 254 11.3 22.5 0.00 0.00 0.00 34 1012.6
20260504184054 22 200 6.4 22.5 0.00 0.00 0.00 38 1012.5
20260504183550 22 243 11.3 22.5 0.00 0.00 0.00 34 1012.8
20260504183054 22 271 6.4 17.7 0.00 0.00 0.00 35 1012.7
20260504182550 22 254 8.0 19.3 0.00 0.00 0.00 35 1012.8
20260504182054 22 255 8.0 19.3 0.00 0.00 0.00 34 1012.9
20260504181600 22 269 8.0 22.5 0.00 0.00 0.00 35 1013.0
20260504181054 22 204 9.7 22.5 0.00 0.00 0.00 36 1012.9
20260504180555 22 225 4.8 27.4 0.00 0.00 0.00 36 1013.1
20260504180144 21 250 9.7 27.4 0.00 0.00 0.00 35 1013.1
20260504175552 21 219 14.5 27.4 0.00 0.00 0.00 36 1013.1
20260504175056 22 237 9.7 22.5 0.00 0.00 0.00 35 1013.3
20260504174553 22 5 8.0 22.5 0.00 0.00 0.00 35 1013.3
20260504174057 21 290 9.7 22.5 0.00 0.00 0.00 37 1013.3
20260504173556 21 178 8.0 22.5 0.00 0.00 0.00 36 1013.6
20260504173115 21 296 6.4 29.0 0.00 0.00 0.00 37 1013.4
20260504172552 21 240 12.9 29.0 0.00 0.00 0.00 37 1013.7
20260504172055 21 259 9.7 20.9 0.00 0.00 0.00 37 1013.6
20260504171557 21 300 9.7 22.5 0.00 0.00 0.00 38 1013.6
20260504171056 21 295 11.3 29.0 0.00 0.00 0.00 36 1013.8
20260504170555 21 296 14.5 29.0 0.00 0.00 0.00 36 1013.9
20260504151054 19 196 9.7 22.5 0.00 0.00 0.00 49 1015.2
20260504150556 18 292 12.9 22.5 0.00 0.00 0.00 48 1015.2
20260504141055 17 275 9.7 29.0 0.00 0.00 0.00 56 1015.2
20260504140553 17 217 16.1 29.0 0.00 0.00 0.00 54 1015.3
20260504140112 17 260 14.5 27.4 0.00 0.00 0.00 54 1015.2
20260504130552 14 219 12.9 25.7 0.00 0.00 0.00 65 1015.5
20260504120136 8 187 6.4 11.3 0.00 0.00 0.00 90 1016.3
20260504110552 2 0 0.0 0.0 0.00 0.00 0.00 92 1016.2
20260504100551 0 0 0.0 0.0 0.00 0.00 0.00 88 1016.1
20260504081555 1 0 0.0 3.2 0.00 0.00 0.00 86 1016.1
20260504081050 1 0 0.0 3.2 0.00 0.00 0.00 86 1016.1
20260504080553 1 0 0.0 3.2 0.00 0.00 0.00 86 1016.0
20260504050555 3 360 3.2 8.0 0.00 0.00 0.00 83 1015.5
20260504050131 3 360 1.6 6.4 0.00 0.00 0.00 83 1015.5
20260504045554 3 0 0.0 6.4 0.00 0.00 0.00 83 1015.4
20260504045054 3 360 0.0 6.4 0.00 0.00 0.00 82 1015.4
20260504044558 3 360 1.6 6.4 0.00 0.00 0.00 83 1015.5
20260504044052 3 0 0.0 6.4 0.00 0.00 0.00 83 1015.4
20260504043553 3 0 1.6 6.4 0.00 0.00 0.00 82 1015.4
20260504043101 3 360 0.0 3.2 0.00 0.00 0.00 82 1015.3
20260504042555 3 0 0.0 3.2 0.00 0.00 0.00 82 1015.1
20260504042053 3 0 0.0 3.2 0.00 0.00 0.00 81 1015.2
20260504041554 3 0 0.0 3.2 0.00 0.00 0.00 81 1015.1
20260504041052 3 0 0.0 6.4 0.00 0.00 0.00 81 1015.1